Rockwall, TX

9:30 PM CST on November 21, 2019 (GMT -0600)
Rockwall

Weather History for KF46 - September, 2019

Change the Weather History Date:

Saturday, September 14, 2019

  Actual Average (KDFW) Record (KDFW)
Temperature  
Mean Temperature 84 °F -  
Max Temperature 96 °F 87 °F 102 °F (1953)
Min Temperature 72 °F 67 °F 48 °F (1902)
Cooling Degree Days 19    
Growing Degree Days 34 (Base 50)    
Moisture  
Dew Point 67 °F    
Average Humidity 59    
Maximum Humidity 85    
Minimum Humidity 32    
Precipitation  
Precipitation 0.00 in - - ()
Sea Level Pressure  
Sea Level Pressure 30.12 in    
Wind  
Wind Speed 5 mph ()    
Max Wind Speed 12 mph    
Max Gust Speed -    
Visibility 10.0 miles    
Events      
Averages and records for this station are not official NWS values.
T = Trace of Precipitation, MM = Missing Value Source: Averaged Metar Reports

Daily Weather History Graph

Daily Weather History Graph

Search for Another Location

Airport or City:

Astronomy

Sep. 14, 2019 Rise Set
Actual Time 7:08 AM CDT 7:33 PM CDT
Civil Twilight 6:43 AM CDT 7:58 PM CDT
Nautical Twilight 6:14 AM CDT 8:27 PM CDT
Astronomical Twilight 5:45 AM CDT 8:56 PM CDT
Moon 8:14 PM CDT (9/14) 7:25 AM CDT (9/14)
Length of Visible Light 13h 14m
Length of Day
12h 24m
Full, 100% of the Moon is Illuminated
Sep 14
Full
Sep 21
Last Quarter
Sep 28
New
Oct 5
First Quarter
Oct 13
Full

Hourly Weather History & Observations

Time (CDT) Temp. Heat Index Dew Point Humidity Pressure Visibility Wind Dir Wind Speed Gust Speed Precip Events Conditions
12:15 AM 77.0 °F - 67.5 °F 72% 30.13 in 10.0 mi ENE 5.8 mph - N/A   Clear
12:35 AM 76.5 °F - 68.0 °F 75% 30.13 in 10.0 mi ENE 3.5 mph - N/A   Clear
12:55 AM 76.3 °F - 68.2 °F 76% 30.14 in 10.0 mi ENE 4.6 mph - N/A   Clear
1:15 AM 76.1 °F - 68.2 °F 76% 30.14 in 10.0 mi NE 3.5 mph - N/A   Clear
1:35 AM 75.4 °F - 68.2 °F 78% 30.14 in 10.0 mi North - - N/A   Clear
1:55 AM 75.2 °F - 68.4 °F 79% 30.14 in 10.0 mi North - - N/A   Clear
2:15 AM 75.2 °F - 68.4 °F 79% 30.14 in 10.0 mi ENE 4.6 mph - N/A   Clear
2:35 AM 75.2 °F - 68.2 °F 79% 30.14 in 10.0 mi ENE 4.6 mph - N/A   Clear
2:55 AM 75.2 °F - 68.2 °F 79% 30.14 in 10.0 mi ENE 4.6 mph - N/A   Clear
3:35 AM 74.5 °F - 68.2 °F 81% 30.13 in 10.0 mi ENE 4.6 mph - N/A   Clear
3:55 AM 74.3 °F - 68.2 °F 81% 30.13 in 10.0 mi ENE 4.6 mph - N/A   Clear
4:15 AM 73.9 °F - 68.4 °F 83% 30.13 in 10.0 mi East 4.6 mph - N/A   Clear
4:35 AM 73.4 °F - 68.4 °F 84% 30.13 in 10.0 mi East 4.6 mph - N/A   Clear
4:55 AM 73.4 °F - 68.4 °F 84% 30.13 in 10.0 mi East 4.6 mph - N/A   Clear
5:15 AM 73.6 °F - 68.2 °F 83% 30.13 in 10.0 mi East 4.6 mph - N/A   Clear
5:35 AM 73.9 °F - 68.2 °F 82% 30.13 in 10.0 mi East 4.6 mph - N/A   Clear
5:55 AM 74.3 °F - 68.2 °F 81% 30.14 in 10.0 mi East 6.9 mph - N/A   Clear
6:15 AM 73.6 °F - 68.0 °F 83% 30.14 in 10.0 mi East 4.6 mph - N/A   Clear
6:35 AM 73.2 °F - 68.0 °F 84% 30.14 in 10.0 mi East 4.6 mph - N/A   Clear
7:15 AM 72.9 °F - 68.0 °F 85% 30.15 in 10.0 mi East 3.5 mph - N/A   Clear
7:35 AM 73.4 °F - 68.0 °F 83% 30.16 in 10.0 mi East 4.6 mph - N/A   Clear
7:55 AM 74.5 °F - 68.2 °F 81% 30.16 in 10.0 mi East 5.8 mph - N/A   Clear
8:15 AM 76.1 °F - 68.9 °F 78% 30.16 in 10.0 mi East 4.6 mph - N/A   Clear
8:35 AM 78.1 °F - 68.9 °F 73% 30.17 in 10.0 mi East 5.8 mph - N/A   Clear
8:55 AM 79.9 °F - 69.3 °F 70% 30.17 in 10.0 mi East 6.9 mph - N/A   Clear
9:15 AM 81.7 °F 85.1 °F 69.4 °F 66% 30.17 in 10.0 mi East 9.2 mph - N/A   Clear
9:35 AM 83.3 °F 87.1 °F 69.4 °F 63% 30.17 in 10.0 mi ESE 10.4 mph - N/A   Clear
9:55 AM 84.6 °F 88.8 °F 69.8 °F 61% 30.18 in 10.0 mi ESE 6.9 mph - N/A   Clear
10:15 AM 85.6 °F 90.4 °F 70.3 °F 60% 30.18 in 10.0 mi East 8.1 mph - N/A   Clear
10:55 AM 89.1 °F 94.6 °F 70.7 °F 54% 30.18 in 10.0 mi East 8.1 mph - N/A   Clear
11:15 AM 89.8 °F 94.2 °F 68.9 °F 50% 30.17 in 10.0 mi SE 6.9 mph - N/A   Clear
11:35 AM 90.9 °F 94.8 °F 67.8 °F 47% 30.17 in 10.0 mi SE 5.8 mph - N/A   Clear
11:55 AM 92.1 °F 95.7 °F 67.5 °F 44% 30.16 in 10.0 mi ESE 5.8 mph - N/A   Clear
12:15 PM 93.2 °F 96.2 °F 66.4 °F 41% 30.16 in 10.0 mi ESE 5.8 mph - N/A   Clear
12:35 PM 93.6 °F 97.4 °F 67.3 °F 42% 30.15 in 10.0 mi East 4.6 mph - N/A   Clear
12:55 PM 94.1 °F 97.3 °F 66.4 °F 40% 30.14 in 10.0 mi East 6.9 mph - N/A   Clear
1:15 PM 94.8 °F 96.7 °F 64.2 °F 36% 30.13 in 10.0 mi SE 4.6 mph - N/A   Clear
1:35 PM 94.5 °F 97.0 °F 64.9 °F 38% 30.13 in 10.0 mi ESE 5.8 mph - N/A   Clear
1:55 PM 94.8 °F 96.2 °F 63.1 °F 35% 30.12 in 10.0 mi East 11.5 mph - N/A   Clear
2:15 PM 95.4 °F 97.1 °F 63.5 °F 35% 30.11 in 10.0 mi East 11.5 mph - N/A   Clear
2:35 PM 95.4 °F 96.6 °F 63.1 °F 34% 30.10 in 10.0 mi East 6.9 mph - N/A   Clear
3:15 PM 95.7 °F 97.2 °F 62.8 °F 34% 30.09 in 10.0 mi East 9.2 mph - N/A   Clear
3:35 PM 95.4 °F 96.2 °F 62.1 °F 33% 30.08 in 10.0 mi ENE 6.9 mph - N/A   Clear
3:55 PM 95.7 °F 96.3 °F 61.2 °F 32% 30.08 in 10.0 mi SE 4.6 mph - N/A   Clear
4:15 PM 96.3 °F 97.2 °F 61.9 °F 32% 30.07 in 10.0 mi ESE 5.8 mph - N/A   Clear
4:35 PM 95.4 °F 96.2 °F 62.4 °F 33% 30.07 in 10.0 mi East 5.8 mph - N/A   Clear
4:55 PM 95.2 °F 95.9 °F 61.5 °F 33% 30.06 in 10.0 mi NE 5.8 mph - N/A   Clear
5:15 PM 95.0 °F 96.0 °F 63.0 °F 34% 30.06 in 10.0 mi East 8.1 mph - N/A   Clear
5:35 PM 94.5 °F 96.5 °F 64.8 °F 37% 30.05 in 10.0 mi ESE 3.5 mph - N/A   Clear
5:55 PM 93.6 °F 96.4 °F 65.7 °F 40% 30.06 in 10.0 mi ENE 4.6 mph - N/A   Clear
6:15 PM 93.2 °F 95.3 °F 65.1 °F 39% 30.06 in 10.0 mi East 5.8 mph - N/A   Clear
6:35 PM 92.1 °F 94.4 °F 65.5 °F 41% 30.06 in 10.0 mi East 5.8 mph - N/A   Clear
6:55 PM 91.4 °F 94.0 °F 65.8 °F 43% 30.06 in 10.0 mi East 8.1 mph - N/A   Clear
7:15 PM 89.8 °F 92.1 °F 65.7 °F 45% 30.06 in 10.0 mi East 5.8 mph - N/A   Clear
7:35 PM 87.8 °F 90.4 °F 66.2 °F 49% 30.06 in 10.0 mi East 4.6 mph - N/A   Clear
7:55 PM 86.4 °F 88.7 °F 66.0 °F 51% 30.06 in 10.0 mi Calm Calm - N/A   Clear
8:15 PM 85.1 °F 87.1 °F 65.7 °F 52% 30.07 in 10.0 mi East 3.5 mph - N/A   Clear
8:35 PM 84.2 °F 86.3 °F 65.7 °F 54% 30.08 in 10.0 mi East 3.5 mph - N/A   Clear
8:55 PM 83.7 °F 85.5 °F 65.5 °F 54% 30.08 in 10.0 mi East 3.5 mph - N/A   Clear
9:15 PM 82.8 °F 84.7 °F 65.7 °F 56% 30.08 in 10.0 mi East 3.5 mph - N/A   Clear
9:35 PM 82.4 °F 84.4 °F 65.7 °F 57% 30.09 in 10.0 mi East 4.6 mph - N/A   Clear
9:55 PM 82.4 °F 84.2 °F 65.5 °F 56% 30.09 in 10.0 mi East 4.6 mph - N/A   Clear
10:15 PM 82.4 °F 84.6 °F 66.2 °F 58% 30.09 in 10.0 mi East 4.6 mph - N/A   Clear
10:35 PM 81.7 °F 83.8 °F 66.2 °F 59% 30.10 in 10.0 mi East 4.6 mph - N/A   Clear
10:55 PM 81.3 °F 83.5 °F 66.4 °F 60% 30.09 in 10.0 mi East 4.6 mph - N/A   Clear
11:15 PM 81.9 °F 84.2 °F 66.7 °F 60% 30.09 in 10.0 mi ENE 4.6 mph - N/A   Clear
11:35 PM 81.5 °F 83.9 °F 66.7 °F 61% 30.10 in 10.0 mi East 4.6 mph - N/A   Clear
11:55 PM 81.3 °F 83.6 °F 66.9 °F 61% 30.10 in 10.0 mi East 4.6 mph - N/A   Scattered Clouds